Regional Weather Roundup
Issued by NWS

Home | Current Version | Previous Version | Text Only | Print | Product List | Glossary On
Versions: 1 2 3 4 5 6 7 8 9 10 11 12 13 14 15 16 17 18 19 20 21 22 23 24 25 26 27 28 29 30 31 32 33 34 35 36 37 38 39 40 41 42 43 44 45 46 47 48 49 50
000
ASUS43 KOAX 180302
RWRNE

WEATHER ROUNDUP FOR NEBRASKA
NATIONAL WEATHER SERVICE OMAHA NE
900 PM CST WED DEC 17 2014

NOTES: SATELLITE DATA IS BEING USED TO AUGMENT CLOUD COVER ABOVE
       12000 FEET.
       "FAIR" INDICATES FEW OR NO CLOUDS BELOW 12,000 FEET WITH NO
       SIGNIFICANT WEATHER AND/OR OBSTRUCTIONS TO VISIBILITY.

  * THESE STATIONS DO NOT REPORT WEATHER SUCH AS RAIN...SNOW OR FOG.

NEZ001>004-019>022-054>056-180400-
NEBRASKA PANHANDLE

CITY           SKY/WX    TMP DP  RH WIND       PRES   REMARKS
SCOTTSBLUFF    FOG       20  19  96 E3        30.00S VSB 1/4
ALLIANCE       FOG       22  20  92 S7        29.99S VSB 1/2 WCI  13
CHADRON        CLOUDY    15  12  88 SW6       30.03R FOG     WCI   6
SIDNEY         CLOUDY    22  19  89 SW10      29.99S FOG     WCI  11
$$

NEZ057>060-069>072-079>082-180400-
SOUTHWEST NEBRASKA

CITY           SKY/WX    TMP DP  RH WIND       PRES   REMARKS
NORTH PLATTE   CLOUDY    22  20  92 S6        30.11S WCI  14
IMPERIAL       CLOUDY    24  21  88 SE8       30.07S FOG     WCI  15
MCCOOK         CLOUDY    25  23  92 E6        30.12S FOG     WCI  18
$$

NEZ005>010-023>029-035>040-094-180400-
NORTH CENTRAL NEBRASKA

CITY           SKY/WX    TMP DP  RH WIND       PRES   REMARKS
VALENTINE      CLOUDY    22  20  92 S12       30.10S WCI  10
BROKEN BOW     CLOUDY    23  21  92 S7        30.13S WCI  15
ORD            CLOUDY    23  20  88 SE3       30.17R
$$

NEZ041-046>049-061>064-073>077-083>087-180400-
SOUTH CENTRAL NEBRASKA

CITY           SKY/WX    TMP DP  RH WIND       PRES   REMARKS
GRAND ISLAND   CLOUDY    24  18  77 SE7       30.20S WCI  16
HASTINGS       CLOUDY    25  18  74 SE5       30.17F WCI  19
KEARNEY *      CLOUDY    25  19  80 E8        30.16F WCI  16
$$

NEZ011>018-030>034-042>045-180400-
NORTHEAST NEBRASKA

CITY           SKY/WX    TMP DP  RH WIND       PRES   REMARKS
NORFOLK        CLOUDY    25  17  72 SE8       30.22R WCI  16
BLAIR          CLOUDY    28  21  76 E3        30.24R
COLUMBUS *     CLOUDY    25  14  63 SE8       30.24S WCI  16
TEKAMAH        CLOUDY    28  19  69 E7        30.27R WCI  21
$$

NEZ050>053-065>068-078-088>093-180400-
SOUTHEAST NEBRASKA

CITY           SKY/WX    TMP DP  RH WIND       PRES   REMARKS
LINCOLN        CLOUDY    26  17  68 SE8       30.27R WCI  18
OMAHA EPPLEY   CLOUDY    28  19  69 SE5       30.28R WCI  23
FALLS CITY     CLOUDY    29  22  75 E5        30.26S WCI  24
$$

NEZ044-045-051>053-067-180400-
OMAHA AREA

CITY           SKY/WX    TMP DP  RH WIND       PRES   REMARKS
OMAHA EPPLEY   CLOUDY    28  19  69 SE5       30.28R WCI  23
BLAIR          CLOUDY    28  21  76 E3        30.24R
OFFUTT AFB     CLOUDY    28  19  68 E6        30.26R WCI  21
$$


USA.gov is the U.S. government's official web portal to all federal, state and local government web resources and services.